Location: *
(48.4333°N, 5.0333°W)
Time: 11:19:39
(UTC+00:00)

STARLINK-1254 - Pass Details

Date: 09 April 2020
Orbit: 548 x 551 km, 53.0° (Epoch: 04 June)

Event Time Altitude Azimuth Distance (km) Brightness Sun altitude
Rises 19:37:05 0° 295° (WNW) 2,759 9.7 -6.3°
Reaches altitude 10° 19:39:21 10° 294° (WNW) 1,859 8.1 -6.6°
Maximum altitude 19:43:34 73° 210° (SSW) 591 3.8 -7.3°
Drops below altitude 10° 19:47:45 10° 126° (SE) 1,844 5.7 -7.9°
Enters shadow 19:47:52 - 126° (SE) 1,893 5.7 -7.9°
